Flag for Trinidad and Tobago Weather past 2 weeks in Scarborough, Trinidad and Tobago

Now
88 °F

Scattered clouds.


Feels Like: 94 °F
Forecast: 75 / 87 °F
Wind: 15 mph from East

Location: Crown Pt./ Scarborou

Current Time: Dec 20, 2014 at 2:00:52 PM

Latest Report: Dec 20, 2014 at 1:00 PM


Visibility: N/A

Pressure: 29.95 "Hg

Humidity: 59%

Dew point: 72 °F

Location of ScarboroughLocation

Historic Weather in Scarborough — Graph

°F

Scarborough temperature yesterday

Maximum temperature yesterday: 86 °F (at 11:00 AM)
Minimum temperature yesterday: 75 °F (at 12:00 AM)
Average temperature yesterday: 80 °F

Past Weeks' High & Low Weather Summary

 TemperatureHumidityPressure
High90 °F (Dec 17, 2:00 PM)94% (Dec 13, 8:00 AM)30.01 "Hg (Dec 13, 8:00 AM)
Low73 °F (Dec 13, 5:00 AM)59% (Dec 10, 12:00 PM)29.83 "Hg (Dec 5, 4:00 PM)
Average81 °F77%29.91 "Hg
* Reported Dec 5 1:00 PM — Dec 20 1:00 PM, Scarborough, Weather by CustomWeather, © 2014

Note: Actual official high and low records may vary slightly from our data, if they occured in-between our weather recording intervals... More about our weather records

Advertising

Scarborough weather history for previous 24 hours

 ConditionsComfort  
Time TempWeatherWind HumidityBarometerVisibility
1:00 PM
Dec 20
88 °FScattered clouds.15 mph59%29.95 "HgN/A
12:00 PM88 °FScattered clouds.16 mph62%29.98 "HgN/A
11:00 AM86 °FPassing clouds.16 mph66%29.98 "HgN/A
10:00 AM84 °FPassing clouds.10 mph70%29.98 "HgN/A
8:00 AM82 °FPassing clouds.8 mph74%29.95 "HgN/A
7:00 AM77 °FPassing clouds.5 mph79%29.92 "HgN/A
6:00 AM75 °FPassing clouds.No wind89%29.92 "HgN/A
5:00 AM75 °FPassing clouds.No wind89%29.89 "HgN/A
4:00 AM75 °FPassing clouds.No wind89%29.89 "HgN/A
3:00 AM77 °FPassing clouds.No wind83%29.89 "HgN/A
2:00 AM77 °FPassing clouds.No wind83%29.89 "HgN/A
1:00 AM77 °FPassing clouds.No wind83%29.92 "HgN/A
12:00 AM77 °FPassing clouds.No wind79%29.92 "HgN/A
11:00 PM
Dec 19
77 °FPassing clouds.No wind79%29.95 "HgN/A
10:00 PM77 °FPassing clouds.No wind79%29.95 "HgN/A
9:00 PM77 °FPassing clouds.No wind79%29.95 "HgN/A
8:00 PM79 °FPassing clouds.No wind84%29.92 "HgN/A
7:00 PM79 °FPassing clouds.No wind74%29.92 "HgN/A
6:00 PM81 °FPassing clouds.No wind70%29.89 "HgN/A
5:00 PM81 °FPassing clouds.7 mph70%29.89 "HgN/A
4:00 PM84 °FPassing clouds.9 mph70%29.86 "HgN/A
3:00 PM86 °FPassing clouds.7 mph62%29.86 "HgN/A
2:00 PM86 °FPassing clouds.8 mph62%29.89 "HgN/A
Weather by CustomWeather, © 2014

See weather overviewHow to use our weather pages